Location: Blairvadach
(56.2780°N, 6.9720°W)
Time: 08:53:33
(UTC+00:00)

Envisat - Pass Details

Date: 17 November 2019
Orbit: 764 x 766 km, 98.1° (Epoch: 08 December)

Event Time Altitude Azimuth Distance (km) Brightness Sun altitude
Rises 18:32:26 0° 175° (S) 3,224 6.3 -18.4°
Reaches altitude 10° 18:34:46 10° 179° (S) 2,302 5.5 -18.8°
Maximum altitude 18:39:46 59° 259° (WSW) 890 3.6 -19.4°
Drops below altitude 10° 18:44:49 10° 339° (NNW) 2,317 5.7 -20.1°
Sets 18:47:11 0° 343° (NNW) 3,248 6.4 -20.5°
